Simultaneous Nadir Overpasses (SNOs) Predictions

Prediction of SNOs between AQUA and METOP-B Satellite Orbit:

Table of predicted SNOs for the next 14.0 days since TLE Epoch: 2/1/2025
Index Date (AQUA) Time (AQUA) Lat,Lon (AQUA) SZA (AQUA ) Date (METOP-B) Time (METOP-B) Lat,Lon (METOP-B) SZA (METOP-B ) Distance(km) Time Diff (sec)
1 02/02/2025 12:06:19 76.89, -3.07 93.52 02/02/2025 12:06:01 76.89, -3.03 93.52 0.91 18
2 02/02/2025 12:55:38 -76.93, 164.48 86.46 02/02/2025 12:56:42 -76.93, 164.46 86.46 1.02 64
3 02/05/2025 00:55:49 76.87, 164.71 92.74 02/05/2025 00:55:08 76.88, 164.63 92.76 2.59 41
4 02/05/2025 01:45:09 -76.94, -27.90 87.20 02/05/2025 01:45:49 -76.93, -27.86 87.21 1.92 40
5 02/07/2025 13:45:17 76.89, -27.69 91.98 02/07/2025 13:44:14 76.87, -27.74 91.96 3.16 63
6 02/07/2025 14:34:36 -76.92, 139.89 88.01 02/07/2025 14:34:55 -76.91, 139.77 88.01 3.11 19
7 02/10/2025 02:34:35 76.49, 141.45 90.74 02/10/2025 02:33:30 76.43, 138.32 90.75 81.71 65
8 02/10/2025 03:24:03 -76.94, -52.49 88.80 02/10/2025 03:24:01 -76.93, -52.47 88.81 0.99 2
9 02/10/2025 04:13:26 77.10, 114.55 91.37 02/10/2025 04:14:37 77.10, 115.53 91.34 24.32 71
10 02/12/2025 16:13:27 -76.91, 115.31 89.67 02/12/2025 16:13:07 -76.93, 115.24 89.64 2.88 20



Historial Predications of SNOs between AQUA and METOP-B
